Weather History for Amman Airport, Jordan

Change the Weather History Date:

Sunday, March 2, 2014

  Actual Average Record
Temperature  
Mean Temperature 61 °F -  
Max Temperature 76 °F 62 °F - ()
Min Temperature 46 °F 44 °F - ()
Degree Days  
Heating Degree Days 4    
Growing Degree Days 11 (Base 50)    
Moisture  
Dew Point 30 °F    
Average Humidity 29    
Maximum Humidity 45    
Minimum Humidity 10    
Precipitation  
Precipitation 0.00 in 0.06 in - ()
Sea Level Pressure  
Sea Level Pressure 29.90 in    
Wind  
Wind Speed 3 mph ()    
Max Wind Speed 15 mph    
Max Gust Speed -    
Visibility 2.0 miles    
Events      
T = Trace of Precipitation, MM = Missing Value Source: Averaged Metar Reports

Daily Weather History Graph

Daily Weather History Graph

Search for Another Location

Airport:

Trip Planner

Search our weather history database for the weather conditions in past years. The results will help you decide how hot, cold, wet, or windy it might be!

Date:

Astronomy

Mar. 02, 2014 Rise Set
Actual Time 6:02 AM EET 5:34 PM EET
Civil Twilight 5:37 AM EET 5:58 PM EET
Nautical Twilight 5:09 AM EET 6:27 PM EET
Astronomical Twilight 4:41 AM EET 6:55 PM EET
Moon 6:26 AM EET (3/2) 6:58 PM EET (3/2)
Length of Visible Light 12h 20m
Length of Day
11h 31m
New Moon, 2% of the Moon is Illuminated
Mar 2
New Moon
Mar 8
First Quarter
Mar 16
Full
Mar 24
Last Quarter
Mar 30
New

Hourly Weather History & Observations

Time (EET) Temp. Dew Point Humidity Pressure Visibility Wind Dir Wind Speed Gust Speed Precip Events Conditions
12:00 AM 57.2 °F 28.4 °F 33% 29.95 in 2.5 mi Calm Calm - N/A   Haze
1:00 AM 57.2 °F 24.8 °F 29% 29.95 in 2.5 mi Calm Calm - N/A   Haze
2:00 AM 54 °F 23 °F 18% 29.85 in 3 mi Calm Calm - -   Haze
2:00 AM 53.6 °F 23.0 °F 30% 29.95 in 3.1 mi Calm Calm - N/A   Haze
3:00 AM 51.8 °F 23.0 °F 33% 29.92 in 3.1 mi Calm Calm - N/A   Haze
5:00 AM 50 °F 23 °F 22% 29.82 in 3 mi Calm Calm - -   Haze
5:00 AM 50.0 °F 23.0 °F 35% 29.89 in 3.1 mi Calm Calm - N/A   Haze
6:00 AM 50.0 °F 24.8 °F 37% 29.89 in 2.5 mi Calm Calm - N/A   Haze
7:00 AM 50.0 °F 24.8 °F 37% 29.89 in 5.0 mi Calm Calm - N/A   Haze
8:00 AM 51 °F 28 °F 29% 29.86 in 2 mi Calm Calm - -   Haze
8:00 AM 51.8 °F 28.4 °F 41% 29.89 in 4.3 mi Calm Calm - N/A   Haze
9:00 AM 57.2 °F 30.2 °F 36% 29.92 in 1.9 mi ENE 4.6 mph - N/A   Smoke
10:00 AM 62.6 °F 30.2 °F 30% 29.92 in 1.9 mi NE 5.8 mph - N/A   Smoke
11:00 AM 63 °F 31 °F 18% 29.87 in 2 mi ENE 4.6 mph - -   Widespread Dust
11:00 AM 62.6 °F 30.2 °F 30% 29.92 in 1.9 mi ENE 4.6 mph - N/A   Scattered Clouds
12:00 PM 73.4 °F 32.0 °F 22% 29.92 in 1.9 mi WSW 15.0 mph - N/A   Scattered Clouds
1:00 PM 73.4 °F 30.2 °F 20% 29.92 in 1.9 mi WSW 9.2 mph - N/A   Scattered Clouds
2:00 PM 75 °F 29 °F 10% 29.80 in 3 mi West 13.8 mph - -   Widespread Dust
2:00 PM 75.2 °F 28.4 °F 18% 29.86 in 3.1 mi West 13.8 mph - N/A   Unknown
3:00 PM 71.6 °F 35.6 °F 27% 29.89 in 2.5 mi WSW 13.8 mph - N/A   Unknown
4:00 PM 71.6 °F 33.8 °F 25% 29.89 in 2.2 mi West 8.1 mph - N/A   Unknown
5:00 PM 68 °F 33 °F 17% 29.85 in 2 mi WNW 13.4 mph - -   Widespread Dust
5:00 PM 68.0 °F 33.8 °F 28% 29.89 in 1.9 mi WNW 6.9 mph - N/A   Unknown
6:00 PM 64.4 °F 35.6 °F 34% 29.89 in 0.9 mi NNW 5.8 mph - N/A   Unknown
7:00 PM 60.8 °F 35.6 °F 39% 29.92 in 0.6 mi NW 6.9 mph - N/A   Unknown
8:00 PM 62 °F 35 °F 25% 29.88 in 0 mi 1.2 mph - -   Widespread Dust
8:00 PM 60.8 °F 35.6 °F 39% 29.92 in 0.4 mi Variable 1.2 mph - N/A   Unknown
9:00 PM 59.0 °F 33.8 °F 39% 29.95 in 0.3 mi WNW 5.8 mph - N/A   Unknown
10:00 PM 59.0 °F 32.0 °F 36% 29.95 in 0.2 mi Calm Calm - N/A   Unknown
11:00 PM 59 °F 37 °F 32% 29.88 in 0 mi West 6.7 mph - -  
11:00 PM 59.0 °F 37.4 °F 45% 29.95 in 0.2 mi West 3.5 mph - N/A   Unknown